User: anonymous   Login
Location: Whelan
(46.7841°N, 117.1166°W)
Time: 01:48:48
(UTC+00:00)
Language:

Envisat - Orbit

View from above orbital plane
View from above orbital plane
View from above satellite
View from above satellite

Ground track
Ground track

The orbit data is extracted from the following two-line orbital elements,

1 27386U 02009A   24145.52499750  .00000326  00000-0  12017-3 0  9999
2 27386  98.2810 107.4380 0001214  90.7842  20.9857 14.38577680165100
Epoch (UTC): 24 May 2024 12:35:59
Eccentricity: 0.0001214
inclination: 98.2810°
perigee height: 762 km
apogee height: 764 km
right ascension of ascending node: 107.4380°
argument of perigee: 90.7842°
revolutions per day: 14.38577680
mean anomaly at epoch: 20.9857°
orbit number at epoch: 16510

The dashed part of the orbit path shows where the satellite is in the earth's shadow,  

DLR